Miscellaneous Local Product
Issued by NWS North Platte, NE

Home | Current Version | Previous Version | Text Only | Print | Product List | Glossary On
Versions: 1 2 3 4 5 6 7 8 9 10 11 12 13 14 15 16 17 18 19 20 21 22 23 24 25 26 27 28 29 30 31 32 33 34 35 36 37 38 39 40 41 42 43 44 45 46 47 48 49 50
000
AXUS43 KLBF 291410
MISLBF


WESTERN AND NORTH CENTRAL NEBRASKA HOURLY WEATHER ROUNDUP
NATIONAL WEATHER SERVICE NORTH PLATTE NE
900 AM CDT SAT AUG 29 2015

NOTE: "FAIR" INDICATES FEW OR NO CLOUDS BELOW 12,000 FEET WITH NO
SIGNIFICANT WEATHER AND/OR OBSTRUCTIONS TO VISIBILITY.

NOTE: STATIONS NOT REPORTING VARIABLES SUCH AS SKY/WEATHER OR
PRESSURE ARE PROVIDED BY THE NEBRASKA DEPARTMENT OF
ROADS...RAWS...AND APRS NETWORKS...AND ARE NOT UNDER
NATIONAL WEATHER SERVICE QUALITY CONTROL.

...OBSERVATIONS IN AND NEAR THE EASTERN PANHANDLE OF NEBRASKA...

CITY           SKY/WX    TMP DP  RH WIND       PRES   REMARKS
PINE RIDGE     MOSUNNY   57  51  80 CALM      30.11R
CHADRON        SUNNY     60  50  69 CALM      30.11R HAZE
ALLIANCE       SUNNY     57  51  80 CALM      30.17R
SIDNEY         SUNNY     59  46  62 W5        30.22R
CRESCENT LAKE    N/A     62  58  86 CALM        N/A
BIG SPRINGS      N/A     57  54  91 SW3         N/A
$$

...OBSERVATIONS IN NORTH CENTRAL NEBRASKA...

CITY           SKY/WX    TMP DP  RH WIND       PRES   REMARKS
VALENTINE      MOSUNNY   60  58  92 CALM      30.09R
THEDFORD       SUNNY     63  63  99 W3        30.14R
AINSWORTH      SUNNY     64  62  91 SW5       30.10R
O`NEILL        SUNNY     61  60  98 CALM      30.10S
ORD            MOSUNNY   57  57 100 CALM      30.11S
BROKEN BOW     SUNNY     61  58  90 CALM      30.12S
SPRINGVIEW       N/A     58  57  97 CALM        N/A
SARGENT          N/A     57  56  98 CALM        N/A
EWING            N/A     59  56  91 CALM        N/A
$$

...OBSERVATIONS IN SOUTHWEST NEBRASKA AND FAR NORTHEAST COLORADO...

CITY           SKY/WX    TMP DP  RH WIND       PRES   REMARKS
WRAY           FAIR      59  52  76 SW5       30.21R
HOLYOKE        FAIR      61  54  77 W3        30.20R
IMPERIAL       SUNNY     62  56  80 W5        30.17S
OGALLALA       SUNNY     57  56  97 CALM      30.16F
NORTH PLATTE   SUNNY     59  56  89 CALM      30.15S
MCCOOK         SUNNY     61  58  90 SW3       30.14R
LEXINGTON      SUNNY     61  60  97 W3        30.13S
PAXTON           N/A     59  57  94 CALM        N/A
BRADY            N/A     58  56  95 CALM        N/A
CALLAWAY         N/A     66  65  97 NW8         N/A
$$

...OBSERVATIONS IN CENTRAL LINCOLN COUNTY AREA...

CITY           SKY/WX    TMP DP  RH WIND       PRES   REMARKS
N.P. AIRPORT   SUNNY     59  56  89 CALM      30.15S
N.P. DOWNTOWN    N/A     61  59  92 CALM        N/A
N.P. SOUTHEAST   N/A     60  58  92 CALM        N/A
$$

...SOME OBSERVATIONS FROM AROUND THE REGION...

CITY           SKY/WX    TMP DP  RH WIND       PRES   REMARKS
DENVER         SUNNY     65  42  43 S5        30.27S
LARAMIE        SUNNY     51  40  65 S5        30.37S
CHEYENNE       SUNNY     58  44  60 W7        30.30R
SCOTTSBLUFF    SUNNY     58  51  78 E5        30.18R
RAPID CITY     MOSUNNY   61  55  81 CALM      30.06S
PIERRE         PTSUNNY   65  62  90 CALM      29.99R
WINNER         FAIR      68  59  73 SW7       30.04S
SIOUX FALLS    PTSUNNY   57  56  96 S3        30.06F
OMAHA          CLOUDY    62  60  93 N8        30.06S
GRAND ISLAND   FOG       58  58 100 N5        30.13R VSB 1/4
KANSAS CITY    CLOUDY    68  65  90 N7        30.00R
WICHITA        MOSUNNY   71  63  75 N9        30.04R
HAYS           SUNNY     64  54  68 NW8       30.11S
LIBERAL        SUNNY     66  61  82 N6        30.16R
GOODLAND       SUNNY     63  55  75 W5        30.21R
$$



USA.gov is the U.S. government's official web portal to all federal, state and local government web resources and services.